FW5469 Weather Reports


Display with metric or nautical units.
time (UTC)temp
F
wind
direction
speed
MPH
gust
MPH
rain 1hr
in
rain 24hr
in
rain mn
in
humidity
%
barometer
mb
20260903120119 71 221 2.0 4.0 0.00 0.00 0.00 88 1014.8
20260903114614 70 184 2.0 7.0 0.00 0.00 0.00 88 1015.0
20260903113104 71 220 2.0 6.0 0.00 0.00 0.00 88 1015.2
20260903111608 71 224 2.0 4.0 0.00 0.00 0.00 88 1015.3
20260903110106 72 173 2.0 4.0 0.00 0.00 0.00 86 1014.7
20260903104604 73 117 0.0 3.0 0.00 0.00 0.00 84 1015.5
20260903103104 73 86 0.0 3.0 0.00 0.00 0.00 84 1015.4
20260903101608 74 27 2.0 5.0 0.00 0.00 0.00 83 1015.2
20260903094611 75 65 1.0 9.0 0.00 0.00 0.00 82 1014.8
20260903093119 74 0 0.0 0.0 0.00 0.00 0.00 85 1014.4
20260903091608 73 0 0.0 0.0 0.00 0.00 0.00 84 1013.9
20260903084601 73 0 0.0 0.0 0.00 0.00 0.00 84 1013.8
20260903083109 74 0 0.0 0.0 0.00 0.00 0.00 83 1013.6
20260903081600 74 0 0.0 0.0 0.00 0.00 0.00 83 1013.6
20260903080108 74 0 0.0 0.0 0.00 0.00 0.00 83 1013.7
20260903074601 74 0 0.0 0.0 0.00 0.00 0.00 83 1014.0
20260903073107 74 0 0.0 0.0 0.00 0.00 0.00 82 1014.3
20260903071605 74 0 0.0 0.0 0.00 0.00 0.00 82 1013.8
20260903070105 75 0 0.0 0.0 0.00 0.00 0.00 80 1014.2
20260903064608 76 0 0.0 0.0 0.00 0.00 0.00 78 1014.4
20260903063104 77 0 0.0 2.0 0.00 0.00 0.00 77 1014.8
20260903061608 78 4 0.0 4.0 0.00 0.00 0.00 76 1015.0
20260903060109 79 328 1.0 9.0 0.00 0.00 0.00 75 1015.2
20260903054607 80 332 4.0 12.0 0.00 0.00 0.00 78 1015.3
20260903053104 81 334 0.0 0.0 0.00 0.00 0.00 81 1014.4
20260903051605 81 0 0.0 0.0 0.00 0.00 0.00 80 1013.8
20260903050104 81 0 0.0 4.0 0.00 0.00 0.00 79 1013.6
20260903044602 81 179 0.0 2.0 0.00 0.00 0.00 78 1013.4
20260903043100 82 0 1.0 3.0 0.00 0.00 0.00 77 1013.3
20260903041617 82 278 1.0 3.0 0.00 0.00 0.00 76 1013.2
20260903034604 83 224 2.0 4.0 0.00 0.00 0.00 75 1012.9
20260903033104 83 219 2.0 6.0 0.00 0.00 0.00 74 1012.5
20260903031601 83 202 0.0 5.0 0.00 0.00 0.00 74 1012.5
20260903030100 83 234 2.0 6.0 0.00 0.00 0.00 74 1013.0
20260903024602 83 221 1.0 5.0 0.00 0.00 0.00 74 1013.3
20260903023122 84 212 1.0 5.0 0.00 0.00 0.00 74 1013.6
20260903021600 84 231 0.0 3.0 0.00 0.00 0.00 74 1013.6
20260903020101 84 217 1.0 5.0 0.00 0.00 0.00 73 1013.5
20260903014604 84 223 1.0 3.0 0.00 0.00 0.00 74 1013.6
20260903013107 84 212 0.0 3.0 0.00 0.00 0.00 74 1013.6
20260903011613 84 0 0.0 3.0 0.00 0.00 0.00 74 1013.6
20260903010106 84 0 0.0 0.0 0.00 0.00 0.00 73 1013.7
20260903004603 85 0 0.0 0.0 0.00 0.00 0.00 72 1013.6
20260903003106 86 0 0.0 0.0 0.00 0.00 0.00 70 1013.4
20260903001607 86 0 0.0 2.0 0.00 0.00 0.00 69 1013.3
20260903000109 87 0 0.0 0.0 0.00 0.00 0.00 68 1013.2
20260902234610 89 0 1.0 4.0 0.00 0.00 0.00 65 1013.3
20260902233059 90 241 0.0 2.0 0.00 0.00 0.00 64 1013.3
20260902231605 91 0 0.0 5.0 0.00 0.00 0.00 64 1013.3
20260902230111 91 0 0.0 2.0 0.00 0.00 0.00 65 1013.3
20260902224606 91 135 0.0 4.0 0.00 0.00 0.00 63 1013.3
20260902223106 91 0 1.0 7.0 0.00 0.00 0.00 62 1013.2
20260902221605 91 306 0.0 7.0 0.00 0.00 0.00 62 1013.1
20260902220109 92 130 1.0 8.0 0.00 0.00 0.00 61 1013.2
20260902214607 93 133 1.0 7.0 0.00 0.00 0.00 59 1013.2
20260902213109 94 276 2.0 6.0 0.00 0.00 0.00 58 1013.3
20260902211608 95 195 1.0 8.0 0.00 0.00 0.00 57 1013.4
20260902204608 94 283 1.0 7.0 0.00 0.00 0.00 58 1013.7
20260902203101 95 0 1.0 6.0 0.00 0.00 0.00 57 1013.9
20260902201609 95 153 2.0 6.0 0.00 0.00 0.00 56 1013.9
20260902200107 95 235 1.0 5.0 0.00 0.00 0.00 57 1014.0
20260902194605 95 238 3.0 7.0 0.00 0.00 0.00 59 1014.2
20260902193105 94 278 2.0 7.0 0.00 0.00 0.00 61 1014.4
20260902191604 94 151 2.0 7.0 0.00 0.00 0.00 61 1014.5
20260902184608 95 314 3.0 6.0 0.00 0.00 0.00 56 1014.8
20260902183105 93 211 1.0 9.0 0.00 0.00 0.00 61 1014.8
20260902181604 94 146 2.0 5.0 0.00 0.00 0.00 58 1015.1
20260902180104 93 148 1.0 7.0 0.00 0.00 0.00 59 1015.1
20260902174608 93 201 1.0 10.0 0.00 0.00 0.00 60 1015.3
20260902173104 93 155 2.0 6.0 0.00 0.00 0.00 61 1015.5
20260902171610 92 158 2.0 7.0 0.00 0.00 0.00 61 1015.8
20260902170107 91 221 0.0 7.0 0.00 0.00 0.00 63 1015.9
20260902164605 91 162 1.0 3.0 0.00 0.00 0.00 64 1016.0
20260902163108 90 210 1.0 6.0 0.00 0.00 0.00 68 1016.2
20260902161611 89 248 1.0 5.0 0.00 0.00 0.00 68 1016.2
20260902160117 89 167 1.0 5.0 0.00 0.00 0.00 69 1016.3
20260902154607 88 209 2.0 4.0 0.00 0.00 0.00 71 1016.3
20260902153102 87 229 2.0 5.0 0.00 0.00 0.00 73 1016.4
20260902151614 86 0 1.0 3.0 0.00 0.00 0.00 74 1016.4
20260902150104 85 245 1.0 3.0 0.00 0.00 0.00 75 1016.4
20260902144617 85 0 2.0 3.0 0.00 0.00 0.00 76 1016.3
20260902143108 85 155 1.0 4.0 0.00 0.00 0.00 76 1016.3
20260902141602 84 227 0.0 3.0 0.00 0.00 0.00 77 1016.0
20260902134601 82 201 1.0 5.0 0.00 0.00 0.00 79 1016.0
20260902133109 81 196 1.0 4.0 0.00 0.00 0.00 82 1015.9
20260902131605 81 185 1.0 5.0 0.00 0.00 0.00 82 1016.1
20260902124604 79 0 1.0 4.0 0.00 0.00 0.00 84 1015.9
20260902123111 78 201 0.0 2.0 0.00 0.00 0.00 85 1016.0